This demonstration page uses our WeatherBlox Daily Observations layout. Learn more.

38.88101, -77.10428

Hourly Observations for June 23, 2019

Temp ( °F °C ) Dew Point ( °F °C ) Humidity (%) Winds ( mph kmh ) Pressure ( in mb ) Visibility ( mi km ) Precip ( " mm )
12:52 am 00:52 Mostly Clear 72 22.2 52 11.1 50 50 Calm 30.05 1018 10 16.0934 0 0
1:52 am 01:52 Mostly Clear 68 20 56 13.3 65 65 N 3 6 30.05 1018 10 16.0934 0 0
2:52 am 02:52 Mostly Clear 68 20 54 12.2 61 61 N 6 9 30.06 1018 10 16.0934 0 0
3:52 am 03:52 Clear 66 18.9 55 12.8 68 68 N 5 7 30.07 1018 10 16.0934 0 0
4:52 am 04:52 Partly Cloudy 65 18.3 54 12.2 68 68 NNW 7 11 30.07 1018 10 16.0934 0 0
5:52 am 05:52 Partly Cloudy 65 18.3 53 11.7 66 66 NNW 6 9 30.08 1019 10 16.0934 0 0
6:52 am 06:52 Partly Cloudy 66 18.9 54 12.2 65 65 NNW 6 9 30.1 1019 10 16.0934 0 0
7:52 am 07:52 Partly Cloudy 70 21.1 55 12.8 59 59 N 5 7 30.11 1020 10 16.0934 0 0
8:52 am 08:52 Partly Cloudy 75 23.9 55 12.8 50 50 NNE 3 6 30.11 1020 10 16.0934 0 0
9:52 am 09:52 Partly Cloudy 76 24.4 54 12.2 47 47 Calm 30.09 1019 10 16.0934 0 0
10:52 am 10:52 Partly Cloudy 79 26.1 50 10 36 36 NE 5 7 30.08 1019 10 16.0934 0 0
11:52 am 11:52 Mostly Cloudy 80 26.7 49 9.4 34 34 ESE 7 11 30.06 1018 10 16.0934 0 0
12:52 pm 12:52 Partly Cloudy 83 28.3 49 9.4 31 31 VRB 3 6 30.04 1017 10 16.0934 0 0
1:52 pm 13:52 Mostly Cloudy 81 27.2 51 10.6 35 35 SE 5 7 30.02 1017 10 16.0934 0 0
3:52 pm 15:52 Mostly Cloudy 83 28.3 55 12.8 38 38 S 9 15 30 1016 10 16.0934 0 0
4:52 pm 16:52 Mostly Cloudy 84 28.9 52 11.1 33 33 W 12 19 29.98 1015 10 16.0934 0 0
5:52 pm 17:52 Mostly Cloudy 82 27.8 54 12.2 38 38 SW 6 9 29.96 1015 10 16.0934 0 0
6:52 pm 18:52 Partly Cloudy 83 28.3 53 11.7 36 36 WSW 10 17 29.96 1014 10 16.0934 0 0
7:52 pm 19:52 Partly Cloudy 80 26.7 58 14.4 47 47 S 10 17 29.95 1014 10 16.0934 0 0
8:52 pm 20:52 Mostly Cloudy 78 25.6 58 14.4 50 50 S 9 15 29.95 1014 10 16.0934 0 0
9:52 pm 21:52 Mostly Cloudy 76 24.4 58 14.4 54 54 S 9 15 29.96 1015 10 16.0934 0 0
10:52 pm 22:52 Partly Cloudy 74 23.3 60 15.6 62 62 S 8 13 29.95 1014 10 16.0934 0 0
11:52 pm 23:52 Mostly Cloudy 74 23.3 61 16.1 64 64 S 9 15 29.95 1014 10 16.0934 0 0

Powered by AerisWeather